UAL2425 KEWR-KIAH

Flight info

Callsign UAL2425
Flight time 3h 13m
Altitude 34000
Route LANNA J48 CSN FANPO Q40 AEX GESNR2
Aircraft B739/M-SDE2E3FGHIRWXY/LB1

Departure

Time 2026-04-21 01:37
Airport Newark Liberty International Airport (KEWR)

Arrival

Time 2026-04-21 04:50
Airport George Bush Intercontinental Airport (KIAH)
Time Latitude Longitude Altitude Speed Heading
2026-04-21 01:17 40.68249 -74.18724 21 ft 0 kts 282°
2026-04-21 01:28 40.68247 -74.18713 22 ft 4 kts 282°
2026-04-21 01:28 40.68242 -74.18679 24 ft 4 kts 282°
2026-04-21 01:28 40.68236 -74.18650 22 ft 4 kts 300°
2026-04-21 01:28 40.68219 -74.18630 25 ft 4 kts 356°
2026-04-21 01:29 40.68193 -74.18634 22 ft 4 kts 13°
2026-04-21 01:29 40.68169 -74.18641 21 ft 2 kts 12°
2026-04-21 01:29 40.68166 -74.18642 21 ft 0 kts 12°
2026-04-21 01:31 40.68174 -74.18639 24 ft 5 kts 12°
2026-04-21 01:32 40.68210 -74.18598 23 ft 9 kts 69°
2026-04-21 01:32 40.68199 -74.18499 23 ft 13 kts 101°
2026-04-21 01:32 40.68189 -74.18384 21 ft 12 kts 94°
2026-04-21 01:32 40.68183 -74.18272 21 ft 12 kts 94°
2026-04-21 01:33 40.68177 -74.18164 21 ft 12 kts 93°
2026-04-21 01:33 40.68172 -74.18057 23 ft 11 kts 97°
2026-04-21 01:33 40.68142 -74.17964 21 ft 11 kts 132°
2026-04-21 01:33 40.68087 -74.17894 21 ft 11 kts 135°
2026-04-21 01:34 40.68044 -74.17815 21 ft 11 kts 143°
2026-04-21 01:34 40.67976 -74.17828 23 ft 10 kts 205°
2026-04-21 01:34 40.67913 -74.17868 21 ft 10 kts 206°
2026-04-21 01:34 40.67847 -74.17911 21 ft 11 kts 206°
2026-04-21 01:35 40.67777 -74.17954 21 ft 11 kts 205°
2026-04-21 01:35 40.67709 -74.17998 21 ft 11 kts 206°
2026-04-21 01:35 40.67635 -74.18043 21 ft 13 kts 196°
2026-04-21 01:35 40.67568 -74.17989 23 ft 12 kts 113°
2026-04-21 01:36 40.67615 -74.17897 21 ft 18 kts 27°
2026-04-21 01:36 40.67909 -74.17711 21 ft 80 kts 25°
2026-04-21 01:36 40.68589 -74.17279 25 ft 134 kts 26°
2026-04-21 01:36 40.69532 -74.16663 174 ft 160 kts 21°
2026-04-21 01:37 40.70526 -74.16034 761 ft 161 kts 24°
2026-04-21 01:37 40.71433 -74.15193 1439 ft 161 kts 37°
2026-04-21 01:37 40.72281 -74.14181 1936 ft 172 kts 38°
2026-04-21 01:37 40.73212 -74.13055 2176 ft 194 kts 38°
2026-04-21 01:38 40.74276 -74.11774 2401 ft 214 kts 36°
2026-04-21 01:38 40.75606 -74.10965 2776 ft 221 kts
2026-04-21 01:38 40.77172 -74.11260 3168 ft 233 kts 336°
2026-04-21 01:38 40.78464 -74.12551 3899 ft 241 kts 310°
2026-04-21 01:39 40.79138 -74.14626 4689 ft 252 kts 279°
2026-04-21 01:39 40.78951 -74.16959 5450 ft 261 kts 258°
2026-04-21 01:39 40.78406 -74.19247 6301 ft 261 kts 254°
2026-04-21 01:39 40.77791 -74.21508 7107 ft 262 kts 252°
2026-04-21 01:40 40.77174 -74.23735 7851 ft 263 kts 253°
2026-04-21 01:40 40.76547 -74.26016 8596 ft 265 kts 253°
2026-04-21 01:40 40.75921 -74.28313 9293 ft 266 kts 253°
2026-04-21 01:40 40.75296 -74.30632 9954 ft 269 kts 253°
2026-04-21 01:41 40.74664 -74.32994 10361 ft 282 kts 253°
2026-04-21 01:41 40.73995 -74.35513 10508 ft 300 kts 253°
2026-04-21 01:41 40.73281 -74.38205 10675 ft 319 kts 253°
2026-04-21 01:41 40.72542 -74.40995 10844 ft 334 kts 253°
2026-04-21 01:42 40.71767 -74.43919 11263 ft 341 kts 253°
2026-04-21 01:42 40.70979 -74.46881 11867 ft 341 kts 253°
2026-04-21 01:42 40.70196 -74.49825 12486 ft 342 kts 253°
2026-04-21 01:42 40.69403 -74.52807 13050 ft 346 kts 253°
2026-04-21 01:43 40.68604 -74.55814 13648 ft 349 kts 253°
2026-04-21 01:43 40.67798 -74.58843 14317 ft 352 kts 253°
2026-04-21 01:43 40.66985 -74.61898 14976 ft 354 kts 253°
2026-04-21 01:43 40.66165 -74.64972 15633 ft 358 kts 253°
2026-04-21 01:44 40.65337 -74.68075 16268 ft 361 kts 253°
2026-04-21 01:44 40.64498 -74.71214 16898 ft 365 kts 254°
2026-04-21 01:44 40.63653 -74.74377 17527 ft 368 kts 254°
2026-04-21 01:44 40.62796 -74.77567 18147 ft 372 kts 254°
2026-04-21 01:45 40.61927 -74.80794 18741 ft 375 kts 254°
2026-04-21 01:45 40.61052 -74.84045 19273 ft 379 kts 255°
2026-04-21 01:45 40.60169 -74.87328 19813 ft 382 kts 255°
2026-04-21 01:45 40.59280 -74.90635 20348 ft 385 kts 255°
2026-04-21 01:46 40.58394 -74.93928 20866 ft 389 kts 255°
2026-04-21 01:46 40.57487 -74.97294 21395 ft 392 kts 255°
2026-04-21 01:46 40.56543 -75.00684 21924 ft 397 kts 252°
2026-04-21 01:46 40.55245 -75.03942 22427 ft 407 kts 243°
2026-04-21 01:47 40.53515 -75.06954 22866 ft 418 kts 238°
2026-04-21 01:47 40.51620 -75.09931 23086 ft 429 kts 237°
2026-04-21 01:47 40.49680 -75.12942 23533 ft 433 kts 237°
2026-04-21 01:47 40.47726 -75.15973 24033 ft 436 kts 238°
2026-04-21 01:48 40.45764 -75.19032 24429 ft 439 kts 238°
2026-04-21 01:48 40.43800 -75.22110 24812 ft 441 kts 238°
2026-04-21 01:48 40.41821 -75.25220 25216 ft 444 kts 238°
2026-04-21 01:48 40.39840 -75.28341 25597 ft 446 kts 238°
2026-04-21 01:49 40.37850 -75.31474 26033 ft 448 kts 238°
2026-04-21 01:49 40.35845 -75.34628 26407 ft 451 kts 238°
2026-04-21 01:49 40.33852 -75.37760 26757 ft 454 kts 238°
2026-04-21 01:49 40.31823 -75.40945 27110 ft 457 kts 238°
2026-04-21 01:50 40.29775 -75.44155 27375 ft 461 kts 239°
2026-04-21 01:50 40.27700 -75.47410 27498 ft 469 kts 239°
2026-04-21 01:50 40.25593 -75.50707 27866 ft 471 kts 239°
2026-04-21 01:50 40.23484 -75.53996 28322 ft 471 kts 239°
2026-04-21 01:51 40.21426 -75.57332 28691 ft 468 kts 243°
2026-04-21 01:51 40.19603 -75.60847 29032 ft 466 kts 246°
2026-04-21 01:51 40.17863 -75.64423 29409 ft 467 kts 247°
2026-04-21 01:51 40.16132 -75.68007 29908 ft 465 kts 246°
2026-04-21 01:52 40.14389 -75.71561 30452 ft 463 kts 246°
2026-04-21 01:52 40.10891 -75.78549 31220 ft 462 kts 245°
2026-04-21 01:52 40.09119 -75.82061 31533 ft 463 kts 245°
2026-04-21 01:53 40.07342 -75.85568 31809 ft 464 kts 245°
2026-04-21 01:53 40.05555 -75.89075 32195 ft 463 kts 245°
2026-04-21 01:53 40.03774 -75.92565 32616 ft 460 kts 245°
2026-04-21 01:53 40.02002 -75.96034 33059 ft 457 kts 244°
2026-04-21 01:54 40.00244 -75.99482 33398 ft 457 kts 244°
2026-04-21 01:54 39.98485 -76.02931 33682 ft 458 kts 244°
2026-04-21 01:54 39.96714 -76.06397 34003 ft 457 kts 244°
2026-04-21 01:54 39.94955 -76.09848 34359 ft 456 kts 244°
2026-04-21 01:55 39.93216 -76.13298 34641 ft 454 kts 244°
2026-04-21 01:55 39.91501 -76.16704 34857 ft 455 kts 244°
2026-04-21 01:55 39.89764 -76.20143 35055 ft 456 kts 244°
2026-04-21 01:55 39.88009 -76.23582 35306 ft 455 kts 244°
2026-04-21 01:56 39.86251 -76.27005 35594 ft 454 kts 244°
2026-04-21 01:56 39.84497 -76.30414 35845 ft 453 kts 243°
2026-04-21 01:56 39.82743 -76.33822 36066 ft 453 kts 243°
2026-04-21 01:56 39.80990 -76.37227 36278 ft 453 kts 243°
2026-04-21 01:57 39.79231 -76.40646 36337 ft 455 kts 243°
2026-04-21 01:57 39.75718 -76.47462 36339 ft 453 kts 243°
2026-04-21 01:58 39.72212 -76.54247 36345 ft 449 kts 244°
2026-04-21 01:58 39.68755 -76.60929 36347 ft 447 kts 244°
2026-04-21 01:59 39.65286 -76.67621 36362 ft 446 kts 244°
2026-04-21 01:59 39.61822 -76.74289 36357 ft 445 kts 244°
2026-04-21 02:00 39.58352 -76.80956 36378 ft 446 kts 244°
2026-04-21 02:00 39.54871 -76.87631 36353 ft 447 kts 244°
2026-04-21 02:01 39.51381 -76.94307 36345 ft 448 kts 244°
2026-04-21 02:01 39.47248 -77.00492 36370 ft 466 kts 228°
2026-04-21 02:02 39.42180 -77.05783 36380 ft 469 kts 226°
2026-04-21 02:02 39.37090 -77.11006 36394 ft 470 kts 226°
2026-04-21 02:03 39.31987 -77.16309 36397 ft 471 kts 227°
2026-04-21 02:03 39.26896 -77.21634 36385 ft 470 kts 227°
2026-04-21 02:04 39.21817 -77.26948 36396 ft 469 kts 227°
2026-04-21 02:04 39.16742 -77.32247 36393 ft 469 kts 227°
2026-04-21 02:05 39.11659 -77.37543 36372 ft 469 kts 227°
2026-04-21 02:05 39.06584 -77.42817 36394 ft 468 kts 227°
2026-04-21 02:06 39.01518 -77.48073 36384 ft 468 kts 227°
2026-04-21 02:06 38.96482 -77.53289 36386 ft 467 kts 227°
2026-04-21 02:07 38.91391 -77.58551 36370 ft 467 kts 227°
2026-04-21 02:07 38.86378 -77.63723 36381 ft 465 kts 227°
2026-04-21 02:08 38.81329 -77.68923 36391 ft 465 kts 227°
2026-04-21 02:08 38.76281 -77.74114 36385 ft 465 kts 227°
2026-04-21 02:09 38.71228 -77.79300 36388 ft 465 kts 226°
2026-04-21 02:09 38.66173 -77.84478 36393 ft 466 kts 227°
2026-04-21 02:10 38.61754 -77.90285 36407 ft 449 kts 241°
2026-04-21 02:10 38.58066 -77.96661 36384 ft 449 kts 242°
2026-04-21 02:11 38.54313 -78.03096 36396 ft 450 kts 241°
2026-04-21 02:11 38.50552 -78.09436 36369 ft 451 kts 241°
2026-04-21 02:12 38.46755 -78.15804 36353 ft 451 kts 241°
2026-04-21 02:12 38.42949 -78.22178 36353 ft 451 kts 241°
2026-04-21 02:13 38.39502 -78.28789 36348 ft 445 kts 246°
2026-04-21 02:13 38.36278 -78.35509 36358 ft 444 kts 247°
2026-04-21 02:14 38.33046 -78.42219 36349 ft 444 kts 246°
2026-04-21 02:14 38.29783 -78.48908 36339 ft 444 kts 246°
2026-04-21 02:15 38.26535 -78.55526 36346 ft 444 kts 246°
2026-04-21 02:15 38.23262 -78.62173 36349 ft 443 kts 246°
2026-04-21 02:16 38.19985 -78.68818 36329 ft 443 kts 246°
2026-04-21 02:16 38.17265 -78.74321 36352 ft 441 kts 246°
2026-04-21 02:17 38.13999 -78.80922 36360 ft 442 kts 246°
2026-04-21 02:17 38.10723 -78.87532 36348 ft 442 kts 246°
2026-04-21 02:18 38.07442 -78.94132 36349 ft 441 kts 246°
2026-04-21 02:18 38.04160 -79.00724 36353 ft 441 kts 246°
2026-04-21 02:19 38.00883 -79.07293 36321 ft 441 kts 246°
2026-04-21 02:19 37.97607 -79.13847 36346 ft 441 kts 246°
2026-04-21 02:19 37.95961 -79.17138 36180 ft 441 kts 246°
2026-04-21 02:20 37.94317 -79.20418 36134 ft 440 kts 246°
2026-04-21 02:20 37.91054 -79.26923 36033 ft 440 kts 246°
2026-04-21 02:21 37.87766 -79.33461 35938 ft 440 kts 246°
2026-04-21 02:21 37.84462 -79.40005 35887 ft 441 kts 246°
2026-04-21 02:22 37.81160 -79.46530 35884 ft 440 kts 246°
2026-04-21 02:22 37.77856 -79.53049 35887 ft 441 kts 246°
2026-04-21 02:23 37.74541 -79.59579 35980 ft 441 kts 246°
2026-04-21 02:23 37.71227 -79.66095 36076 ft 440 kts 246°
2026-04-21 02:23 37.69568 -79.69351 36335 ft 440 kts 246°
2026-04-21 02:24 37.67931 -79.72562 36336 ft 440 kts 246°
2026-04-21 02:24 37.64614 -79.79057 36335 ft 440 kts 246°
2026-04-21 02:25 37.61300 -79.85535 36348 ft 439 kts 246°
2026-04-21 02:25 37.57983 -79.92007 36361 ft 439 kts 246°
2026-04-21 02:26 37.54664 -79.98470 36349 ft 440 kts 245°
2026-04-21 02:26 37.51330 -80.04948 36344 ft 440 kts 245°
2026-04-21 02:27 37.48007 -80.11393 36344 ft 440 kts 245°
2026-04-21 02:27 37.44666 -80.17861 36322 ft 440 kts 245°
2026-04-21 02:28 37.41327 -80.24310 36336 ft 439 kts 245°
2026-04-21 02:28 37.38002 -80.30720 36361 ft 436 kts 245°
2026-04-21 02:29 37.34691 -80.37097 36353 ft 438 kts 245°
2026-04-21 02:29 37.31345 -80.43524 36322 ft 439 kts 245°
2026-04-21 02:30 37.27995 -80.49951 36339 ft 440 kts 245°
2026-04-21 02:30 37.24751 -80.56433 36368 ft 436 kts 247°
2026-04-21 02:31 37.21652 -80.62972 36321 ft 436 kts 248°
2026-04-21 02:31 37.18572 -80.69451 36342 ft 434 kts 247°
2026-04-21 02:32 37.15468 -80.75915 36344 ft 433 kts 247°
2026-04-21 02:32 37.12346 -80.82381 36338 ft 433 kts 247°
2026-04-21 02:33 37.09223 -80.88832 36335 ft 432 kts 247°
2026-04-21 02:33 37.06099 -80.95274 36338 ft 433 kts 247°
2026-04-21 02:34 37.02969 -81.01717 36335 ft 432 kts 247°
2026-04-21 02:34 36.99844 -81.08139 36339 ft 432 kts 247°
2026-04-21 02:35 36.96725 -81.14535 36330 ft 433 kts 247°
2026-04-21 02:35 36.93590 -81.20951 36358 ft 432 kts 246°
2026-04-21 02:36 36.90444 -81.27377 36340 ft 432 kts 246°
2026-04-21 02:36 36.87310 -81.33770 36353 ft 431 kts 246°
2026-04-21 02:37 36.84170 -81.40162 36360 ft 431 kts 246°
2026-04-21 02:37 36.81050 -81.46496 36340 ft 431 kts 246°
2026-04-21 02:38 36.77907 -81.52869 36348 ft 430 kts 246°
2026-04-21 02:38 36.74765 -81.59234 36310 ft 430 kts 246°
2026-04-21 02:39 36.71603 -81.65574 36309 ft 431 kts 245°
2026-04-21 02:39 36.68373 -81.71865 36311 ft 430 kts 245°
2026-04-21 02:40 36.65156 -81.78100 36315 ft 431 kts 245°
2026-04-21 02:40 36.61916 -81.84389 36320 ft 431 kts 245°
2026-04-21 02:41 36.58677 -81.90677 36324 ft 432 kts 245°
2026-04-21 02:41 36.55424 -81.96982 36292 ft 433 kts 245°
2026-04-21 02:42 36.52160 -82.03297 36293 ft 434 kts 245°
2026-04-21 02:42 36.48897 -82.09597 36303 ft 433 kts 245°
2026-04-21 02:43 36.45654 -82.15844 36299 ft 432 kts 245°
2026-04-21 02:43 36.42375 -82.22152 36312 ft 431 kts 244°
2026-04-21 02:44 36.39142 -82.28361 36317 ft 431 kts 244°
2026-04-21 02:44 36.35890 -82.34595 36310 ft 430 kts 244°
2026-04-21 02:45 36.32634 -82.40823 36296 ft 429 kts 245°
2026-04-21 02:45 36.29386 -82.47026 36302 ft 428 kts 245°
2026-04-21 02:46 36.26155 -82.53187 36261 ft 428 kts 245°
2026-04-21 02:46 36.22908 -82.59364 36297 ft 427 kts 245°
2026-04-21 02:47 36.19664 -82.65527 36314 ft 427 kts 245°
2026-04-21 02:47 36.16411 -82.71696 36319 ft 427 kts 245°
2026-04-21 02:48 36.13155 -82.77859 36316 ft 428 kts 245°
2026-04-21 02:48 36.09896 -82.84015 36307 ft 428 kts 245°
2026-04-21 02:49 36.06649 -82.90140 36305 ft 428 kts 245°
2026-04-21 02:49 36.03377 -82.96301 36280 ft 429 kts 245°
2026-04-21 02:50 36.00100 -83.02460 36289 ft 430 kts 245°
2026-04-21 02:50 35.96810 -83.08632 36298 ft 430 kts 245°
2026-04-21 02:51 35.93520 -83.14794 36300 ft 430 kts 245°
2026-04-21 02:51 35.90261 -83.20973 36296 ft 428 kts 246°
2026-04-21 02:52 35.87189 -83.27244 36286 ft 427 kts 248°
2026-04-21 02:52 35.84155 -83.33475 36295 ft 427 kts 247°
2026-04-21 02:53 35.81068 -83.39745 36293 ft 428 kts 247°
2026-04-21 02:53 35.77971 -83.45996 36295 ft 428 kts 247°
2026-04-21 02:54 35.74864 -83.52256 36297 ft 428 kts 247°
2026-04-21 02:54 35.71685 -83.58473 36292 ft 431 kts 245°
2026-04-21 02:55 35.68332 -83.64618 36290 ft 433 kts 245°
2026-04-21 02:55 35.64973 -83.70736 36295 ft 432 kts 245°
2026-04-21 02:56 35.61634 -83.76856 36283 ft 430 kts 245°
2026-04-21 02:56 35.56659 -83.86003 36301 ft 428 kts 245°
2026-04-21 02:57 35.53354 -83.92069 36284 ft 428 kts 245°
2026-04-21 02:57 35.50067 -83.98094 36301 ft 426 kts 245°
2026-04-21 02:58 35.46769 -84.04133 36308 ft 426 kts 245°
2026-04-21 02:58 35.43462 -84.10169 36303 ft 426 kts 245°
2026-04-21 02:59 35.40149 -84.16208 36301 ft 426 kts 245°
2026-04-21 02:59 35.36840 -84.22229 36300 ft 426 kts 245°
2026-04-21 03:00 35.33531 -84.28238 36295 ft 425 kts 245°
2026-04-21 03:00 35.30219 -84.34246 36292 ft 425 kts 245°
2026-04-21 03:01 35.26907 -84.40243 36308 ft 425 kts 245°
2026-04-21 03:01 35.23593 -84.46232 36323 ft 425 kts 245°
2026-04-21 03:02 35.20273 -84.52221 36319 ft 425 kts 244°
2026-04-21 03:02 35.16976 -84.58161 36310 ft 424 kts 245°
2026-04-21 03:03 35.13658 -84.64128 36294 ft 425 kts 244°
2026-04-21 03:03 35.10336 -84.70092 36282 ft 424 kts 244°
2026-04-21 03:04 35.07021 -84.76031 36281 ft 424 kts 244°
2026-04-21 03:04 35.04253 -84.80984 36290 ft 424 kts 244°
2026-04-21 03:05 35.00922 -84.86937 36299 ft 424 kts 244°
2026-04-21 03:05 34.97582 -84.92894 36303 ft 424 kts 244°
2026-04-21 03:06 34.94248 -84.98830 36306 ft 425 kts 244°
2026-04-21 03:06 34.90908 -85.04769 36279 ft 425 kts 244°
2026-04-21 03:07 34.87564 -85.10703 36299 ft 424 kts 244°
2026-04-21 03:07 34.84243 -85.16588 36303 ft 424 kts 244°
2026-04-21 03:08 34.80896 -85.22513 36306 ft 424 kts 244°
2026-04-21 03:08 34.77547 -85.28424 36302 ft 424 kts 244°
2026-04-21 03:09 34.74181 -85.34346 36298 ft 425 kts 244°
2026-04-21 03:09 34.70812 -85.40265 36288 ft 426 kts 244°
2026-04-21 03:10 34.67437 -85.46184 36298 ft 425 kts 243°
2026-04-21 03:10 34.64089 -85.52049 36284 ft 425 kts 243°
2026-04-21 03:11 34.60716 -85.57949 36299 ft 425 kts 243°
2026-04-21 03:11 34.57345 -85.63836 36297 ft 425 kts 243°
2026-04-21 03:12 34.53968 -85.69723 36309 ft 425 kts 243°
2026-04-21 03:12 34.50587 -85.75608 36306 ft 425 kts 243°
2026-04-21 03:13 34.47216 -85.81465 36302 ft 426 kts 243°
2026-04-21 03:13 34.43825 -85.87347 36301 ft 426 kts 243°
2026-04-21 03:14 34.40430 -85.93227 36274 ft 425 kts 243°
2026-04-21 03:14 34.37038 -85.99090 36296 ft 425 kts 243°
2026-04-21 03:15 34.33648 -86.04942 36303 ft 424 kts 243°
2026-04-21 03:15 34.30262 -86.10779 36312 ft 423 kts 243°
2026-04-21 03:16 34.26899 -86.16565 36314 ft 423 kts 243°
2026-04-21 03:16 34.23519 -86.22372 36321 ft 421 kts 243°
2026-04-21 03:17 34.20140 -86.28168 36331 ft 422 kts 243°
2026-04-21 03:17 34.16759 -86.33960 36334 ft 422 kts 243°
2026-04-21 03:18 34.13375 -86.39746 36328 ft 422 kts 243°
2026-04-21 03:18 34.09984 -86.45537 36328 ft 422 kts 243°
2026-04-21 03:19 34.06591 -86.51320 36314 ft 422 kts 243°
2026-04-21 03:19 34.03200 -86.57095 36300 ft 422 kts 242°
2026-04-21 03:20 33.99813 -86.62860 36316 ft 421 kts 242°
2026-04-21 03:20 33.96445 -86.68591 36319 ft 421 kts 242°
2026-04-21 03:21 33.93061 -86.74339 36311 ft 421 kts 242°
2026-04-21 03:21 33.89672 -86.80085 36313 ft 421 kts 242°
2026-04-21 03:22 33.86283 -86.85824 36312 ft 420 kts 242°
2026-04-21 03:22 33.82889 -86.91560 36320 ft 420 kts 242°
2026-04-21 03:23 33.79521 -86.97241 36304 ft 419 kts 242°
2026-04-21 03:23 33.76141 -87.02937 36316 ft 418 kts 242°
2026-04-21 03:24 33.72762 -87.08623 36320 ft 418 kts 242°
2026-04-21 03:24 33.69382 -87.14301 36314 ft 417 kts 242°
2026-04-21 03:25 33.66004 -87.19968 36314 ft 417 kts 242°
2026-04-21 03:25 33.62626 -87.25624 36312 ft 417 kts 242°
2026-04-21 03:26 33.59246 -87.31276 36324 ft 417 kts 242°
2026-04-21 03:26 33.55888 -87.36884 36310 ft 416 kts 241°
2026-04-21 03:27 33.52497 -87.42536 36312 ft 417 kts 241°
2026-04-21 03:27 33.49111 -87.48172 36320 ft 417 kts 241°
2026-04-21 03:28 33.45718 -87.53812 36324 ft 417 kts 241°
2026-04-21 03:28 33.42315 -87.59461 36330 ft 418 kts 241°
2026-04-21 03:29 33.39074 -87.65209 36325 ft 412 kts 248°
2026-04-21 03:29 33.36455 -87.71295 36311 ft 411 kts 249°
2026-04-21 03:30 33.33876 -87.77366 36322 ft 412 kts 249°
2026-04-21 03:30 33.31254 -87.83466 36332 ft 413 kts 249°
2026-04-21 03:31 33.28606 -87.89572 36324 ft 414 kts 248°
2026-04-21 03:31 33.25940 -87.95696 36317 ft 415 kts 248°
2026-04-21 03:32 33.23274 -88.01805 36327 ft 415 kts 248°
2026-04-21 03:32 33.20599 -88.07927 36326 ft 416 kts 248°
2026-04-21 03:33 33.17921 -88.14043 36322 ft 416 kts 248°
2026-04-21 03:33 33.15237 -88.20163 36331 ft 416 kts 248°
2026-04-21 03:34 33.12552 -88.26276 36326 ft 415 kts 248°
2026-04-21 03:34 33.09883 -88.32342 36336 ft 415 kts 248°
2026-04-21 03:35 33.07194 -88.38442 36338 ft 415 kts 248°
2026-04-21 03:35 33.04504 -88.44535 36336 ft 415 kts 248°
2026-04-21 03:36 33.01813 -88.50621 36311 ft 415 kts 248°
2026-04-21 03:36 32.99117 -88.56706 36328 ft 415 kts 248°
2026-04-21 03:37 32.96433 -88.62753 36281 ft 415 kts 248°
2026-04-21 03:37 32.93736 -88.68821 36312 ft 415 kts 248°
2026-04-21 03:38 32.91030 -88.74898 36342 ft 415 kts 248°
2026-04-21 03:38 32.88320 -88.80973 36344 ft 415 kts 248°
2026-04-21 03:39 32.85613 -88.87033 36353 ft 414 kts 248°
2026-04-21 03:39 32.82911 -88.93069 36362 ft 413 kts 248°
2026-04-21 03:40 32.80216 -88.99079 36333 ft 411 kts 248°
2026-04-21 03:40 32.77540 -89.05040 36291 ft 410 kts 248°
2026-04-21 03:41 32.74851 -89.11018 36330 ft 410 kts 248°
2026-04-21 03:41 32.72167 -89.16977 36331 ft 409 kts 248°
2026-04-21 03:42 32.69479 -89.22937 36308 ft 408 kts 248°
2026-04-21 03:42 32.66794 -89.28880 36283 ft 408 kts 248°
2026-04-21 03:43 32.64112 -89.34804 36252 ft 408 kts 248°
2026-04-21 03:43 32.61526 -89.40747 36213 ft 406 kts 250°
2026-04-21 03:44 32.59106 -89.46786 36212 ft 405 kts 250°
2026-04-21 03:44 32.56695 -89.52820 36208 ft 404 kts 250°
2026-04-21 03:45 32.54265 -89.58838 36239 ft 404 kts 250°
2026-04-21 03:45 32.51836 -89.64809 36238 ft 404 kts 250°
2026-04-21 03:46 32.49389 -89.70807 36265 ft 404 kts 250°
2026-04-21 03:46 32.46939 -89.76797 36266 ft 404 kts 250°
2026-04-21 03:47 32.44485 -89.82790 36264 ft 404 kts 250°
2026-04-21 03:47 32.42026 -89.88783 36261 ft 404 kts 250°
2026-04-21 03:48 32.39566 -89.94770 36284 ft 404 kts 250°
2026-04-21 03:48 32.37115 -90.00726 36313 ft 405 kts 249°
2026-04-21 03:49 32.34646 -90.06713 36286 ft 405 kts 249°
2026-04-21 03:49 32.32176 -90.12694 36312 ft 405 kts 249°
2026-04-21 03:50 32.29702 -90.18674 36322 ft 404 kts 249°
2026-04-21 03:50 32.27228 -90.24644 36323 ft 404 kts 249°
2026-04-21 03:51 32.25167 -90.29609 36319 ft 405 kts 249°
2026-04-21 03:51 32.22689 -90.35570 36313 ft 405 kts 249°
2026-04-21 03:52 32.20205 -90.41537 36307 ft 405 kts 249°
2026-04-21 03:52 32.17717 -90.47503 36308 ft 404 kts 249°
2026-04-21 03:53 32.15229 -90.53459 36303 ft 405 kts 249°
2026-04-21 03:53 32.12739 -90.59408 36301 ft 404 kts 249°
2026-04-21 03:54 32.10244 -90.65360 36295 ft 404 kts 249°
2026-04-21 03:54 32.07746 -90.71310 36296 ft 404 kts 249°
2026-04-21 03:55 32.05264 -90.77212 36289 ft 404 kts 248°
2026-04-21 03:55 32.02753 -90.83173 36299 ft 403 kts 248°
2026-04-21 03:56 32.00277 -90.89042 36296 ft 402 kts 248°
2026-04-21 03:56 31.97781 -90.94949 36299 ft 402 kts 248°
2026-04-21 03:57 31.95281 -91.00856 36296 ft 402 kts 248°
2026-04-21 03:57 31.92787 -91.06739 36294 ft 402 kts 248°
2026-04-21 03:58 31.90290 -91.12622 36300 ft 402 kts 248°
2026-04-21 03:58 31.87786 -91.18461 36300 ft 402 kts 246°
2026-04-21 03:59 31.85095 -91.24281 36302 ft 403 kts 245°
2026-04-21 04:00 31.81029 -91.32935 36299 ft 403 kts 245°
2026-04-21 04:00 31.78345 -91.38682 36284 ft 403 kts 245°
2026-04-21 04:01 31.75650 -91.44461 36298 ft 403 kts 245°
2026-04-21 04:01 31.72950 -91.50248 36296 ft 404 kts 245°
2026-04-21 04:02 31.70241 -91.56046 36288 ft 404 kts 245°
2026-04-21 04:02 31.67548 -91.61798 36292 ft 405 kts 245°
2026-04-21 04:03 31.64829 -91.67600 36290 ft 405 kts 245°
2026-04-21 04:03 31.62107 -91.73396 36291 ft 405 kts 245°
2026-04-21 04:04 31.59375 -91.79205 36289 ft 406 kts 245°
2026-04-21 04:04 31.56646 -91.85000 36286 ft 406 kts 245°
2026-04-21 04:05 31.53915 -91.90789 36284 ft 406 kts 245°
2026-04-21 04:05 31.51199 -91.96537 36288 ft 405 kts 244°
2026-04-21 04:06 31.48464 -92.02318 36283 ft 405 kts 244°
2026-04-21 04:06 31.45734 -92.08080 36288 ft 405 kts 244°
2026-04-21 04:07 31.43000 -92.13841 36291 ft 404 kts 244°
2026-04-21 04:07 31.40260 -92.19606 36298 ft 404 kts 244°
2026-04-21 04:08 31.37518 -92.25367 36294 ft 404 kts 244°
2026-04-21 04:08 31.34797 -92.31074 36294 ft 404 kts 244°
2026-04-21 04:09 31.32056 -92.36815 36299 ft 404 kts 244°
2026-04-21 04:09 31.29313 -92.42553 36309 ft 404 kts 244°
2026-04-21 04:10 31.26561 -92.48301 36302 ft 404 kts 244°
2026-04-21 04:10 31.24152 -92.54218 36307 ft 402 kts 250°
2026-04-21 04:11 31.22070 -92.60267 36310 ft 402 kts 250°
2026-04-21 04:11 31.19983 -92.66329 36292 ft 402 kts 250°
2026-04-21 04:12 31.17870 -92.72382 36305 ft 402 kts 249°
2026-04-21 04:12 31.15739 -92.78437 36315 ft 403 kts 249°
2026-04-21 04:13 31.13601 -92.84491 36315 ft 403 kts 249°
2026-04-21 04:13 31.11473 -92.90505 36302 ft 404 kts 249°
2026-04-21 04:14 31.09323 -92.96572 36296 ft 404 kts 249°
2026-04-21 04:14 31.07169 -93.02639 36290 ft 404 kts 249°
2026-04-21 04:15 31.05009 -93.08711 36278 ft 405 kts 249°
2026-04-21 04:15 31.02845 -93.14786 36287 ft 405 kts 249°
2026-04-21 04:16 31.00681 -93.20850 36287 ft 406 kts 249°
2026-04-21 04:16 30.98511 -93.26920 36285 ft 406 kts 249°
2026-04-21 04:17 30.96344 -93.32969 36283 ft 406 kts 249°
2026-04-21 04:17 30.94164 -93.39046 36278 ft 407 kts 249°
2026-04-21 04:18 30.91980 -93.45123 36299 ft 407 kts 249°
2026-04-21 04:18 30.89788 -93.51210 36286 ft 407 kts 249°
2026-04-21 04:19 30.87600 -93.57279 36288 ft 406 kts 249°
2026-04-21 04:19 30.85420 -93.63314 36053 ft 411 kts 249°
2026-04-21 04:19 30.84298 -93.66416 35374 ft 417 kts 248°
2026-04-21 04:20 30.83170 -93.69531 34585 ft 417 kts 248°
2026-04-21 04:20 30.82042 -93.72645 33690 ft 419 kts 248°
2026-04-21 04:20 30.80905 -93.75780 32794 ft 421 kts 248°
2026-04-21 04:20 30.79772 -93.78902 32200 ft 415 kts 248°
2026-04-21 04:21 30.78651 -93.81983 31578 ft 412 kts 248°
2026-04-21 04:21 30.77544 -93.85029 30996 ft 408 kts 248°
2026-04-21 04:21 30.76444 -93.88052 30411 ft 404 kts 248°
2026-04-21 04:21 30.75353 -93.91051 29746 ft 401 kts 248°
2026-04-21 04:22 30.74267 -93.94032 29115 ft 397 kts 248°
2026-04-21 04:22 30.73197 -93.96970 28544 ft 393 kts 248°
2026-04-21 04:22 30.72133 -93.99887 27958 ft 390 kts 248°
2026-04-21 04:22 30.71080 -94.02777 27400 ft 386 kts 248°
2026-04-21 04:23 30.70048 -94.05603 26844 ft 384 kts 249°
2026-04-21 04:23 30.69008 -94.08450 26294 ft 381 kts 249°
2026-04-21 04:23 30.67971 -94.11287 25748 ft 379 kts 249°
2026-04-21 04:23 30.66947 -94.14082 25475 ft 370 kts 249°
2026-04-21 04:24 30.65939 -94.16830 24902 ft 370 kts 249°
2026-04-21 04:24 30.64935 -94.19568 24444 ft 368 kts 249°
2026-04-21 04:24 30.63934 -94.22300 23941 ft 366 kts 248°
2026-04-21 04:24 30.62936 -94.25019 23337 ft 366 kts 248°
2026-04-21 04:25 30.61938 -94.27731 22781 ft 363 kts 248°
2026-04-21 04:25 30.60950 -94.30420 22253 ft 361 kts 248°
2026-04-21 04:25 30.59965 -94.33096 21741 ft 359 kts 248°
2026-04-21 04:25 30.58983 -94.35763 21239 ft 357 kts 248°
2026-04-21 04:26 30.58020 -94.38379 20731 ft 356 kts 248°
2026-04-21 04:26 30.57036 -94.41047 20231 ft 355 kts 249°
2026-04-21 04:26 30.56079 -94.43645 19713 ft 355 kts 249°
2026-04-21 04:26 30.55106 -94.46280 19206 ft 355 kts 249°
2026-04-21 04:27 30.54132 -94.48915 18696 ft 355 kts 249°
2026-04-21 04:27 30.53001 -94.51468 18113 ft 358 kts 237°
2026-04-21 04:27 30.51480 -94.53751 17616 ft 357 kts 233°
2026-04-21 04:27 30.49903 -94.55975 17033 ft 357 kts 232°
2026-04-21 04:28 30.48317 -94.58216 16380 ft 360 kts 232°
2026-04-21 04:28 30.46744 -94.60467 15855 ft 358 kts 233°
2026-04-21 04:28 30.45212 -94.62689 15353 ft 356 kts 233°
2026-04-21 04:28 30.43657 -94.64960 14823 ft 355 kts 233°
2026-04-21 04:29 30.42129 -94.67197 14309 ft 353 kts 233°
2026-04-21 04:29 30.40606 -94.69426 13774 ft 352 kts 233°
2026-04-21 04:29 30.39063 -94.71621 13215 ft 351 kts 231°
2026-04-21 04:29 30.37478 -94.73717 12718 ft 348 kts 229°
2026-04-21 04:30 30.35874 -94.75800 12224 ft 345 kts 229°
2026-04-21 04:30 30.34281 -94.77871 11750 ft 343 kts 229°
2026-04-21 04:30 30.32712 -94.79928 11383 ft 336 kts 229°
2026-04-21 04:30 30.31200 -94.81919 11242 ft 324 kts 229°
2026-04-21 04:31 30.29736 -94.83848 11088 ft 312 kts 230°
2026-04-21 04:31 30.28331 -94.85708 10939 ft 302 kts 230°
2026-04-21 04:31 30.26992 -94.87544 10758 ft 294 kts 231°
2026-04-21 04:31 30.25702 -94.89340 10591 ft 287 kts 231°
2026-04-21 04:32 30.24435 -94.91106 10427 ft 284 kts 231°
2026-04-21 04:32 30.23174 -94.92862 10268 ft 284 kts 231°
2026-04-21 04:32 30.21916 -94.94609 10093 ft 280 kts 231°
2026-04-21 04:32 30.20683 -94.96318 9911 ft 273 kts 232°
2026-04-21 04:33 30.19484 -94.97980 9736 ft 266 kts 232°
2026-04-21 04:33 30.18302 -94.99616 9587 ft 263 kts 232°
2026-04-21 04:33 30.17141 -95.01225 9436 ft 264 kts 231°
2026-04-21 04:33 30.15954 -95.02866 9284 ft 267 kts 231°
2026-04-21 04:34 30.14756 -95.04521 9130 ft 270 kts 231°
2026-04-21 04:34 30.13549 -95.06187 8963 ft 270 kts 231°
2026-04-21 04:34 30.12346 -95.07840 8803 ft 269 kts 230°
2026-04-21 04:34 30.11094 -95.09445 8649 ft 269 kts 228°
2026-04-21 04:35 30.09833 -95.11032 8479 ft 268 kts 228°
2026-04-21 04:35 30.08571 -95.12622 8322 ft 268 kts 228°
2026-04-21 04:35 30.07317 -95.14208 8167 ft 267 kts 228°
2026-04-21 04:35 30.06068 -95.15792 8005 ft 267 kts 228°
2026-04-21 04:36 30.05240 -95.16846 7881 ft 268 kts 228°
2026-04-21 04:36 30.03986 -95.18444 7660 ft 269 kts 228°
2026-04-21 04:36 30.02735 -95.20039 7446 ft 267 kts 228°
2026-04-21 04:36 30.01497 -95.21619 7236 ft 263 kts 228°
2026-04-21 04:37 30.00277 -95.23175 7027 ft 259 kts 227°
2026-04-21 04:37 29.99071 -95.24713 6826 ft 258 kts 227°
2026-04-21 04:37 29.97869 -95.26244 6625 ft 257 kts 226°
2026-04-21 04:37 29.96667 -95.27775 6398 ft 257 kts 226°
2026-04-21 04:38 29.95466 -95.29303 6202 ft 256 kts 226°
2026-04-21 04:38 29.94264 -95.30832 6054 ft 260 kts 226°
2026-04-21 04:38 29.93049 -95.32380 6018 ft 259 kts 226°
2026-04-21 04:38 29.91862 -95.33892 6003 ft 256 kts 226°
2026-04-21 04:39 29.90664 -95.35417 6001 ft 257 kts 226°
2026-04-21 04:39 29.89559 -95.37037 5985 ft 261 kts 243°
2026-04-21 04:39 29.89158 -95.39082 6014 ft 264 kts 264°
2026-04-21 04:39 29.89142 -95.41197 5996 ft 261 kts 268°
2026-04-21 04:40 29.89175 -95.43243 5981 ft 251 kts 268°
2026-04-21 04:40 29.89199 -95.45212 5980 ft 239 kts 268°
2026-04-21 04:40 29.89210 -95.47089 5977 ft 229 kts 266°
2026-04-21 04:40 29.89137 -95.48903 5852 ft 226 kts 263°
2026-04-21 04:41 29.89036 -95.50714 5525 ft 226 kts 263°
2026-04-21 04:41 29.88930 -95.52531 5118 ft 228 kts 263°
2026-04-21 04:41 29.88826 -95.54345 4748 ft 228 kts 262°
2026-04-21 04:41 29.88722 -95.56181 4290 ft 231 kts 262°
2026-04-21 04:42 29.88616 -95.58050 3874 ft 234 kts 262°
2026-04-21 04:42 29.88513 -95.59901 3468 ft 236 kts 261°
2026-04-21 04:42 29.88475 -95.61789 3090 ft 238 kts 276°
2026-04-21 04:42 29.89272 -95.63412 3029 ft 238 kts 321°
2026-04-21 04:43 29.90758 -95.64204 2988 ft 237 kts 354°
2026-04-21 04:43 29.92345 -95.64138 2960 ft 218 kts 20°
2026-04-21 04:43 29.93718 -95.63581 2947 ft 202 kts 27°
2026-04-21 04:43 29.95003 -95.63012 2989 ft 197 kts 27°
2026-04-21 04:44 29.96277 -95.62446 3016 ft 196 kts 27°
2026-04-21 04:44 29.97553 -95.61882 3006 ft 196 kts 28°
2026-04-21 04:44 29.98616 -95.61008 2999 ft 183 kts 59°
2026-04-21 04:44 29.99191 -95.59744 2997 ft 175 kts 79°
2026-04-21 04:45 29.99341 -95.58375 3003 ft 171 kts 94°
2026-04-21 04:45 29.99341 -95.56998 3002 ft 172 kts 95°
2026-04-21 04:45 29.99333 -95.55617 3009 ft 173 kts 95°
2026-04-21 04:45 29.99326 -95.54248 2997 ft 173 kts 95°
2026-04-21 04:46 29.99320 -95.52859 2995 ft 173 kts 94°
2026-04-21 04:46 29.99331 -95.51456 2815 ft 181 kts 92°
2026-04-21 04:46 29.99351 -95.50013 2552 ft 177 kts 94°
2026-04-21 04:46 29.99356 -95.48606 2310 ft 171 kts 94°
2026-04-21 04:47 29.99355 -95.47268 2079 ft 163 kts 94°
2026-04-21 04:47 29.99353 -95.45980 1880 ft 159 kts 93°
2026-04-21 04:47 29.99351 -95.44728 1647 ft 150 kts 92°
2026-04-21 04:47 29.99350 -95.43585 1454 ft 136 kts 92°
2026-04-21 04:48 29.99349 -95.42500 1294 ft 137 kts 91°
2026-04-21 04:48 29.99348 -95.41410 1110 ft 135 kts 91°
2026-04-21 04:48 29.99347 -95.40339 929 ft 131 kts 91°
2026-04-21 04:48 29.99346 -95.39260 777 ft 136 kts 90°
2026-04-21 04:49 29.99345 -95.38197 600 ft 129 kts 91°
2026-04-21 04:49 29.99346 -95.37137 412 ft 139 kts 91°
2026-04-21 04:49 29.99346 -95.36020 238 ft 138 kts 92°
2026-04-21 04:49 29.99342 -95.34938 109 ft 128 kts 89°
2026-04-21 04:50 29.99342 -95.34156 104 ft 66 kts 90°
2026-04-21 04:50 29.99341 -95.33758 105 ft 45 kts 90°
2026-04-21 04:50 29.99339 -95.33454 107 ft 29 kts 92°
2026-04-21 04:50 29.99292 -95.33249 106 ft 14 kts 119°
2026-04-21 04:51 29.99247 -95.33157 106 ft 13 kts 123°
2026-04-21 04:51 29.99199 -95.33070 106 ft 13 kts 123°
2026-04-21 04:51 29.99126 -95.33029 106 ft 12 kts 187°
2026-04-21 04:51 29.99090 -95.33105 106 ft 12 kts 270°
2026-04-21 04:52 29.99091 -95.33206 106 ft 14 kts 270°
2026-04-21 04:52 29.99090 -95.33330 105 ft 16 kts 269°
2026-04-21 04:52 29.99090 -95.33459 106 ft 16 kts 270°
2026-04-21 04:52 29.99090 -95.33583 106 ft 15 kts 270°
2026-04-21 04:53 29.99090 -95.33702 106 ft 15 kts 270°
2026-04-21 04:53 29.99090 -95.33815 106 ft 14 kts 269°
2026-04-21 04:53 29.99089 -95.33925 106 ft 13 kts 269°
2026-04-21 04:53 29.99088 -95.34029 106 ft 13 kts 269°
2026-04-21 04:54 29.99087 -95.34130 106 ft 13 kts 269°
2026-04-21 04:54 29.99086 -95.34214 106 ft 0 kts 269°
2026-04-21 04:54 29.99086 -95.34219 106 ft 3 kts 269°
2026-04-21 04:54 29.99066 -95.34256 106 ft 8 kts 203°
2026-04-21 04:55 29.99031 -95.34260 106 ft 4 kts 184°
2026-04-21 04:55 29.99003 -95.34261 105 ft 4 kts 181°
2026-04-21 04:55 29.98975 -95.34259 106 ft 4 kts 156°
2026-04-21 04:55 29.98958 -95.34231 106 ft 4 kts 124°
2026-04-21 04:56 29.98945 -95.34205 106 ft 2 kts 119°
2026-04-21 04:56 29.98943 -95.34200 106 ft 0 kts 119°